Regional Weather Roundup
Issued by NWS

Home | Current Version | Previous Version | Graphics & Text | Print | Product List | Glossary On
Versions: 1 2 3 4 5 6 7 8 9 10 11 12 13 14 15 16 17 18 19 20 21 22 23 24 25 26 27 28 29 30 31 32 33 34 35 36 37 38 39 40 41 42 43 44 45 46 47 48 49 50
000
ASUS43 KOAX 021510
RWRNE

WEATHER ROUNDUP FOR NEBRASKA
NATIONAL WEATHER SERVICE OMAHA NE
1000 AM CDT THU OCT 02 2014

NOTES: SATELLITE DATA IS BEING USED TO AUGMENT CLOUD COVER ABOVE
       12000 FEET.
       "FAIR" INDICATES FEW OR NO CLOUDS BELOW 12,000 FEET WITH NO
       SIGNIFICANT WEATHER AND/OR OBSTRUCTIONS TO VISIBILITY.

  * THESE STATIONS DO NOT REPORT WEATHER SUCH AS RAIN...SNOW OR FOG.

NEZ001>004-019>022-054>056-021600-
NEBRASKA PANHANDLE

CITY           SKY/WX    TMP DP  RH WIND       PRES   REMARKS
SCOTTSBLUFF    SUNNY     45  41  86 NW8       30.10S
ALLIANCE       SUNNY     46  41  82 W13       30.06S
CHADRON        SUNNY     48  40  73 SW8       30.05S
KIMBALL        SUNNY     46  39  77 NW10G20   30.10R
SIDNEY         SUNNY     47  40  76 NW13      30.10R
$$

NEZ057>060-069>072-079>082-021600-
SOUTHWEST NEBRASKA

CITY           SKY/WX    TMP DP  RH WIND       PRES   REMARKS
NORTH PLATTE   SUNNY     54  47  77 NW12      30.02S
IMPERIAL       SUNNY     52  44  74 NW14      30.05S
LEXINGTON      CLOUDY    54  50  88 NW12      29.99R
MCCOOK         MOSUNNY   56  47  71 N18       30.02S
OGALLALA       SUNNY     52  45  76 NW13G18   30.05S
$$

NEZ005>010-023>029-035>040-094-021600-
NORTH CENTRAL NEBRASKA

CITY           SKY/WX    TMP DP  RH WIND       PRES   REMARKS
VALENTINE      SUNNY     52  45  77 NW12      29.99R
AINSWORTH      SUNNY     53  46  79 NW9       29.98S
BROKEN BOW     MOSUNNY   54  49  83 NW13      29.97S
O`NEILL        CLOUDY    54  53  95 NW10G17   29.95F
ORD            CLOUDY    53  50  89 NW9       29.95R
THEDFORD       SUNNY     54  47  77 NW10      30.01S
$$

NEZ041-046>049-061>064-073>077-083>087-021600-
SOUTH CENTRAL NEBRASKA

CITY           SKY/WX    TMP DP  RH WIND       PRES   REMARKS
GRAND ISLAND   CLOUDY    54  51  90 N12       29.95R
AURORA         DRIZZLE   54  52  95 N10       29.92R
HASTINGS       CLOUDY    54  50  86 N15       29.93R
HEBRON         DRIZZLE   55  52  90 NE9       29.85F
HOLDREGE       CLOUDY    53  49  88 NW9G18    29.96S
KEARNEY *      CLOUDY    54  48  82 NW14      29.95S
YORK           LGT RAIN  54  54 100 N8        29.91S
$$

NEZ011>018-030>034-042>045-021600-
NORTHEAST NEBRASKA

CITY           SKY/WX    TMP DP  RH WIND       PRES   REMARKS
NORFOLK        CLOUDY    54  52  93 NW15      29.89F
ALBION         CLOUDY    53  50  92 NW10G16   29.92S
BLAIR          CLOUDY    57  55  90 NW13      29.84R
COLUMBUS *     CLOUDY    55  50  82 NW9G17    29.92R
FREMONT        RAIN      56  54  93 N8G18     29.83F
TEKAMAH        LGT RAIN  58  53  84 NW14      29.85R
WAYNE          DRIZZLE   54  52  94 NW12      29.90R
$$

NEZ050>053-065>068-078-088>093-021600-
SOUTHEAST NEBRASKA

CITY           SKY/WX    TMP DP  RH WIND       PRES   REMARKS
LINCOLN        LGT RAIN  56  53  90 NW9       29.89R
OMAHA EPPLEY   CLOUDY    59  55  87 NW13      29.84R
BEATRICE       LGT RAIN  56  55  96 N12G17    29.85F
FALLS CITY     HVY RAIN  65  64  97 NW10      29.78R VSB 1
NEBRASKA CITY  RAIN      59  59 100 NW13      29.82R
PLATTSMOUTH      N/A     58  56  95 NW12G17   29.83R FOG
$$

NEZ044-045-051>053-067-021600-
OMAHA AREA

CITY           SKY/WX    TMP DP  RH WIND       PRES   REMARKS
OMAHA EPPLEY   CLOUDY    59  55  87 NW13      29.84R
BLAIR          CLOUDY    57  55  90 NW13      29.84R
FREMONT        RAIN      56  54  93 N8G18     29.83F
MILLARD        LGT RAIN  59  55  88 N8G17     29.83R
OFFUTT AFB     LGT RAIN  59  59 100 NW9       29.83R
PLATTSMOUTH      N/A     58  56  95 NW12G17   29.83R FOG
WAHOO          PTSUNNY   56  53  88 N9G20     29.85F
$$



USA.gov is the U.S. government's official web portal to all federal, state and local government web resources and services.